sat.trackr.live / text

‹ back to catalog

STARLINK-31993

NORAD 59961 · 2024-107S

PAYLOAD ACTIVE UNKNOWN

§ Identity

Operator
Country
US
Launch date
2024-06-05
Launch site
AFETR
Launch vehicle
Mass (kg)
RCS (m²)

Purposes: comms

External: N2YO · Heavens-Above · Gunter

§ Orbital elements

Epoch: 2026-05-25T02:11:16.434816Z

Period
94.11 min
Inclination
53.1606°
Eccentricity
0.0001171
Mean motion
15.30192526 rev/d
Perigee alt
474.4 km
Apogee alt
476.0 km
Semi-major
6,853.4 km
B*
-1.6864e-6
RAAN
70.6673°
Arg perigee
91.2851°
Mean anomaly
268.8284°
Rev number
11,143

§ Raw data

STARLINK-319931 59961U 24107S   26145.09116244 -.00000409  00000+0 -16864-5 0  99932 59961  53.1606  70.6673 0001171  91.2851 268.8284 15.30192526111430

JSON: /api/v1/satellites/59961 · /tle

For live sub-satellite position, see the globe view (requires WebGL).

§ Visibility from observer

Set your observer location to see the next 7 days of passes ≥ 10°. The values pass through the URL so the page stays shareable.

No JS? Fill the form by hand. The geolocation button needs JavaScript.